Weather History for Fryeburg, ME

Change the Weather History Date:

Tuesday, October 2, 2012

  Actual Average Record
Temperature  
Mean Temperature 60 °F -  
Max Temperature 72 °F 62 °F 81 °F (2002)
Min Temperature 48 °F 35 °F 28 °F (1997)
Degree Days  
Heating Degree Days 6    
Growing Degree Days 10 (Base 50)    
Moisture  
Dew Point 53 °F    
Average Humidity 78    
Maximum Humidity 97    
Minimum Humidity 55    
Precipitation  
Precipitation 0.00 in - - ()
Sea Level Pressure  
Sea Level Pressure 29.98 in    
Wind  
Wind Speed 2 mph (SSW)    
Max Wind Speed 7 mph    
Max Gust Speed -    
Visibility 10 miles    
Events      
Averages and records for this station are not official NWS values.
T = Trace of Precipitation, MM = Missing Value Source: NWS Daily Summary

Daily Weather History Graph

Daily Weather History Graph

Search for Another Location

Airport:

Trip Planner

Search our weather history database for the weather conditions in past years. The results will help you decide how hot, cold, wet, or windy it might be!

Date:

Astronomy

Oct. 02, 2012 Rise Set
Actual Time 6:43 AM EDT 6:22 PM EDT
Civil Twilight 6:14 AM EDT 6:50 PM EDT
Nautical Twilight 5:40 AM EDT 7:24 PM EDT
Astronomical Twilight 5:07 AM EDT 7:57 PM EDT
Moon 7:25 PM EDT (10/2) 9:14 AM EDT (10/2)
Length of Visible Light 12h 36m
Length of Day
11h 38m
Waning Gibbous, 94% of the Moon is Illuminated
Oct 2
Waning Gibbous
Oct 8
Last Quarter
Oct 15
New
Oct 21
First Quarter
Oct 29
Full

Hourly Weather History & Observations

Time (EDT) Temp. Dew Point Humidity Pressure Visibility Wind Dir Wind Speed Gust Speed Precip Events Conditions
12:54 AM 57.9 °F 50.0 °F 75% 29.89 in 10.0 mi SW 4.6 mph - N/A   Clear
1:54 AM 54.0 °F 50.0 °F 86% 29.90 in 10.0 mi SE 4.6 mph - N/A   Clear
2:54 AM 52.0 °F 50.0 °F 93% 29.90 in 10.0 mi ESE 4.6 mph - N/A   Clear
3:54 AM 51.1 °F 50.0 °F 96% 29.91 in 10.0 mi Calm Calm - N/A   Clear
4:54 AM 50.0 °F 48.9 °F 96% 29.93 in 10.0 mi Calm Calm - 0.00 in   Clear
5:54 AM 48.9 °F 48.0 °F 97% 29.95 in 10.0 mi Calm Calm - N/A   Clear
7:54 AM 54.0 °F 52.0 °F 93% 29.99 in 10.0 mi Calm Calm - N/A   Clear
8:54 AM 57.9 °F 53.1 °F 84% 30.01 in 10.0 mi Calm Calm - 0.00 in   Clear
9:54 AM 61.0 °F 54.0 °F 78% 30.01 in 10.0 mi Calm Calm - 0.00 in   Clear
10:54 AM 66.9 °F 55.0 °F 66% 30.01 in 10.0 mi Calm Calm - 0.00 in   Clear
11:54 AM 69.1 °F 55.0 °F 61% 30.00 in 10.0 mi Calm Calm - 0.00 in   Clear
12:54 PM 70.0 °F 55.0 °F 59% 29.99 in 10.0 mi Calm Calm - N/A   Clear
1:54 PM 71.1 °F 54.0 °F 55% 29.98 in 10.0 mi WSW 3.5 mph - 0.00 in   Scattered Clouds
2:54 PM 69.1 °F 55.0 °F 61% 30.00 in 10.0 mi Variable 5.8 mph - 0.00 in   Mostly Cloudy
3:54 PM 68.0 °F 57.0 °F 68% 29.99 in 10.0 mi Variable 4.6 mph - N/A   Overcast
4:54 PM 66.9 °F 55.0 °F 66% 29.98 in 10.0 mi Calm Calm - N/A   Clear
5:54 PM 64.9 °F 54.0 °F 68% 30.01 in 10.0 mi SW 6.9 mph - 0.00 in   Overcast
6:54 PM 64.0 °F 55.9 °F 75% 30.01 in 10.0 mi Calm Calm - N/A   Overcast
9:54 PM 61.0 °F 55.9 °F 83% 30.05 in 10.0 mi Calm Calm - N/A   Overcast
10:54 PM 61.0 °F 55.9 °F 83% 30.06 in 10.0 mi Calm Calm - N/A   Overcast
11:54 PM 60.1 °F 55.9 °F 86% 30.06 in 10.0 mi Calm Calm - N/A   Overcast